When you browse on this site, cookies collect data to enhance your experience and personalize the content and advertising you see.
Visit our Privacy Policy to learn more. By continuing to use the site, you agree to this use of cookies and data.
  • In Hungary
  • List of Countries
  • For 7 days
  • Water Temperature
  • Satellite Maps
  • Weather Map
  • News
  • Weather Widgets
  • user-avatar
    Login

    Hourly Weather Gulewo

    Today, 18 January, Friday

    Time Temperature Precipitation Wind Pressure Humidity
    00:00 +1°C° 0 mm 6 mps 739 mmHg 87%
    01:00 +1°C° 0 mm 6 mps 738 mmHg 85%
    02:00 +1°C° 0 mm 6 mps 739 mmHg 84%
    03:00 -1°C° 0 mm 6 mps 739 mmHg 84%
    04:00 -1°C° 0 mm 6 mps 739 mmHg 84%
    05:00 -1°C° 0 mm 7 mps 740 mmHg 83%
    06:00 -2°C° 0 mm 7 mps 741 mmHg 81%
    07:00 -2°C° 0 mm 7 mps 741 mmHg 79%
    08:00 -2°C° 0.3 mm 7 mps 742 mmHg 78%
    09:00 -2°C° 0.3 mm 7 mps 743 mmHg 77%
    10:00 -2°C° 0.3 mm 6 mps 744 mmHg 76%
    11:00 -2°C° 0 mm 6 mps 745 mmHg 72%
    12:00 -2°C° 0 mm 6 mps 746 mmHg 68%
    13:00 -1°C° 0 mm 5 mps 747 mmHg 64%
    14:00 -1°C° 0 mm 5 mps 748 mmHg 65%
    15:00 -2°C° 0 mm 5 mps 748 mmHg 65%
    16:00 -2°C° 0 mm 4 mps 749 mmHg 66%
    17:00 -2°C° 0 mm 4 mps 750 mmHg 68%
    18:00 -3°C° 0 mm 4 mps 750 mmHg 71%
    19:00 -3°C° 0 mm 4 mps 751 mmHg 74%
    20:00 -3°C° 0 mm 4 mps 751 mmHg 76%
    21:00 -3°C° 0 mm 4 mps 751 mmHg 79%
    22:00 -4°C° 0 mm 4 mps 752 mmHg 81%
    23:00 -4°C° 0 mm 4 mps 752 mmHg 82%

    Tomorrow, 19 January, Saturday

    Time Temperature Precipitation Wind Pressure Humidity
    00:00 -4°C° 0 mm 4 mps 752 mmHg 83%
    01:00 -4°C° 0 mm 3 mps 752 mmHg 84%
    02:00 -4°C° 0 mm 3 mps 752 mmHg 85%
    03:00 -4°C° 0 mm 3 mps 752 mmHg 86%
    04:00 -4°C° 0 mm 3 mps 752 mmHg 87%
    05:00 -4°C° 0 mm 3 mps 753 mmHg 88%
    06:00 -4°C° 0 mm 3 mps 753 mmHg 89%
    07:00 -4°C° 0 mm 3 mps 753 mmHg 89%
    08:00 -4°C° 0 mm 3 mps 753 mmHg 87%
    09:00 -2°C° 0 mm 3 mps 753 mmHg 84%
    10:00 -2°C° 0 mm 3 mps 754 mmHg 82%
    11:00 -1°C° 0 mm 3 mps 754 mmHg 77%
    12:00 -1°C° 0 mm 3 mps 754 mmHg 72%
    13:00 0°C° 0 mm 3 mps 753 mmHg 67%
    14:00 -1°C° 0 mm 2 mps 753 mmHg 69%
    15:00 -1°C° 0 mm 2 mps 753 mmHg 72%
    16:00 -2°C° 0 mm 2 mps 753 mmHg 74%
    17:00 -2°C° 0 mm 2 mps 753 mmHg 75%
    18:00 -3°C° 0 mm 2 mps 753 mmHg 77%
    19:00 -3°C° 0 mm 2 mps 753 mmHg 78%
    20:00 -3°C° 0 mm 2 mps 753 mmHg 78%
    21:00 -3°C° 0 mm 2 mps 753 mmHg 78%
    22:00 -1°C° 0 mm 1 mps 753 mmHg 78%
    23:00 -1°C° 0 mm 1 mps 753 mmHg 79%

    Day after tomorrow, 20 January, Sunday

    Time Temperature Precipitation Wind Pressure Humidity
    00:00 -1°C° 0 mm 1 mps 753 mmHg 80%
    01:00 -2°C° 0 mm 1 mps 752 mmHg 81%
    02:00 -2°C° 0 mm 1 mps 752 mmHg 82%
    03:00 -2°C° 0 mm 1 mps 752 mmHg 83%
    04:00 -2°C° 0 mm 1 mps 752 mmHg 83%
    05:00 -2°C° 0 mm 1 mps 752 mmHg 84%
    06:00 -2°C° 0 mm 1 mps 752 mmHg 84%
    07:00 -2°C° 0 mm 1 mps 752 mmHg 84%
    08:00 -2°C° 0 mm 1 mps 752 mmHg 81%
    09:00 -2°C° 0 mm 0 mps 752 mmHg 77%
    10:00 -2°C° 0 mm 0 mps 752 mmHg 74%
    11:00 0°C° 0 mm 1 mps 752 mmHg 70%
    12:00 0°C° 0 mm 1 mps 752 mmHg 66%
    13:00 +1°C° 0 mm 1 mps 751 mmHg 63%
    14:00 0°C° 0 mm 1 mps 751 mmHg 66%
    15:00 0°C° 0 mm 1 mps 751 mmHg 69%
    16:00 -3°C° 0 mm 2 mps 751 mmHg 72%
    17:00 -3°C° 0 mm 2 mps 752 mmHg 73%
    18:00 -3°C° 0 mm 2 mps 752 mmHg 75%
    19:00 -4°C° 0 mm 2 mps 752 mmHg 77%
    20:00 -3°C° 0 mm 2 mps 752 mmHg 78%
    21:00 -3°C° 0 mm 2 mps 753 mmHg 80%
    22:00 -3°C° 0 mm 2 mps 753 mmHg 82%
    23:00 -3°C° 0 mm 2 mps 753 mmHg 84%

    21 January, Monday

    Time Temperature Precipitation Wind Pressure Humidity
    00:00 -3°C° 0 mm 2 mps 754 mmHg 86%
    01:00 -4°C° 0 mm 3 mps 754 mmHg 88%
    02:00 -3°C° 0 mm 2 mps 754 mmHg 89%
    03:00 -3°C° 0 mm 2 mps 754 mmHg 90%
    04:00 -3°C° 0 mm 2 mps 754 mmHg 92%
    05:00 -3°C° 0 mm 2 mps 755 mmHg 93%
    06:00 -2°C° 0 mm 1 mps 755 mmHg 94%
    07:00 -2°C° 0 mm 1 mps 755 mmHg 95%
    08:00 -1°C° 0 mm 1 mps 755 mmHg 93%
    09:00 -1°C° 0 mm 1 mps 756 mmHg 90%
    10:00 0°C° 0 mm 1 mps 756 mmHg 88%
    11:00 -2°C° 0.1 mm 2 mps 756 mmHg 87%
    12:00 -2°C° 0.1 mm 2 mps 756 mmHg 85%
    13:00 -1°C° 0.1 mm 3 mps 756 mmHg 84%
    14:00 -2°C° 0 mm 3 mps 755 mmHg 84%
    15:00 -2°C° 0 mm 3 mps 755 mmHg 83%
    16:00 -2°C° 0 mm 3 mps 755 mmHg 83%
    17:00 -4°C° 0 mm 3 mps 755 mmHg 83%
    18:00 -4°C° 0 mm 3 mps 755 mmHg 83%
    19:00 -4°C° 0 mm 3 mps 755 mmHg 83%
    20:00 -4°C° 0 mm 4 mps 754 mmHg 82%
    21:00 -4°C° 0 mm 4 mps 754 mmHg 81%
    22:00 -4°C° 0 mm 4 mps 754 mmHg 80%
    23:00 -4°C° 0 mm 4 mps 753 mmHg 78%

    22 January, Tuesday

    Time Temperature Precipitation Wind Pressure Humidity
    00:00 -5°C° 0 mm 5 mps 753 mmHg 75%
    01:00 -5°C° 0 mm 5 mps 752 mmHg 73%
    02:00 -5°C° 0 mm 5 mps 752 mmHg 71%
    03:00 -4°C° 0 mm 4 mps 751 mmHg 69%
    04:00 -4°C° 0 mm 4 mps 751 mmHg 68%
    05:00 -4°C° 0 mm 4 mps 750 mmHg 66%
    06:00 -4°C° 0 mm 4 mps 750 mmHg 65%
    07:00 -4°C° 0 mm 4 mps 750 mmHg 63%
    08:00 -4°C° 0 mm 4 mps 749 mmHg 61%
    09:00 -4°C° 0 mm 4 mps 749 mmHg 59%
    10:00 -4°C° 0 mm 4 mps 748 mmHg 57%
    11:00 -3°C° 0 mm 4 mps 748 mmHg 55%
    12:00 -3°C° 0 mm 4 mps 747 mmHg 52%
    13:00 -2°C° 0 mm 4 mps 746 mmHg 50%
    14:00 -2°C° 0 mm 4 mps 746 mmHg 53%
    15:00 -3°C° 0 mm 4 mps 745 mmHg 56%
    16:00 -3°C° 0 mm 4 mps 744 mmHg 59%
    17:00 -3°C° 0 mm 4 mps 744 mmHg 59%
    18:00 -5°C° 0 mm 5 mps 743 mmHg 60%
    19:00 -5°C° 0 mm 5 mps 742 mmHg 60%
    20:00 -5°C° 0 mm 5 mps 742 mmHg 62%
    21:00 -5°C° 0 mm 5 mps 741 mmHg 64%
    22:00 -5°C° 0 mm 5 mps 741 mmHg 66%
    23:00 -5°C° 0 mm 5 mps 741 mmHg 67%

    23 January, Wednesday

    Time Temperature Precipitation Wind Pressure Humidity
    00:00 -5°C° 0 mm 5 mps 740 mmHg 67%
    01:00 -4°C° 0 mm 4 mps 740 mmHg 68%
    02:00 -5°C° 0 mm 4 mps 739 mmHg 70%
    03:00 -5°C° 0 mm 4 mps 739 mmHg 72%
    04:00 -5°C° 0 mm 4 mps 738 mmHg 73%
    05:00 -5°C° 0 mm 4 mps 738 mmHg 74%
    06:00 -7°C° 0 mm 4 mps 737 mmHg 75%
    07:00 -7°C° 0 mm 4 mps 737 mmHg 75%
    08:00 -5°C° 0 mm 4 mps 737 mmHg 72%
    09:00 -5°C° 0 mm 3 mps 737 mmHg 69%
    10:00 -4°C° 0 mm 3 mps 737 mmHg 66%
    11:00 -4°C° 0 mm 4 mps 736 mmHg 66%
    12:00 -3°C° 0 mm 4 mps 736 mmHg 65%
    13:00 -3°C° 0 mm 4 mps 735 mmHg 65%
    14:00 -3°C° 0 mm 4 mps 735 mmHg 70%
    15:00 -3°C° 0 mm 4 mps 735 mmHg 74%
    16:00 -3°C° 0 mm 4 mps 735 mmHg 79%
    17:00 -4°C° 0 mm 4 mps 734 mmHg 79%
    18:00 -4°C° 0 mm 4 mps 734 mmHg 80%
    19:00 -5°C° 0 mm 5 mps 734 mmHg 80%
    20:00 -4°C° 0.1 mm 4 mps 734 mmHg 83%
    21:00 -4°C° 0.1 mm 4 mps 734 mmHg 85%
    22:00 -4°C° 0.1 mm 4 mps 733 mmHg 88%
    23:00 -3°C° 0.2 mm 4 mps 733 mmHg 89%
    Show more